QPF
0.00 0.00 0.00 0.00 0.00 0.00 0.00 0.00 0.00 0.00 0.00 0.00 0.00 0.00 0.00 0.00 0.00 0.00 0.00 0.00 0.00 0.00 0.00 0.00 0.00 0.00 0.00 0.00 0.00 0.02 0.00 0.00 0.01 0.00 0.00 0.06 0.01 0.00 0.00 0.00 0.00 0.02 0.02 0.00 0.00
0.00 0.00 0.00 0.00 0.00 0.00 0.00 0.00 0.00 0.00 0.00 0.00 0.00 0.00 0.00 0.00 0.00 0.00 0.00 0.00 0.00 0.00 0.00 0.00 0.00 0.00 0.00 0.00 0.00 0.01 0.00 0.00 0.00 0.00 0.00 0.01 0.00 0.00 0.00 0.00 0.00 0.00 0.01 0.00 0.00
0.00 0.00 0.00 0.00 0.00 0.00 0.00 0.00 0.00 0.00 0.00 0.00 0.00 0.00 0.00 0.00 0.00 0.00 0.00 0.00 0.00 0.00 0.00 0.00 0.00 0.00 0.00 0.00 0.00 0.00 0.00 0.00 0.00 0.00 0.00 0.00 0.00 0.00 0.00 0.00 0.00 0.00 0.00 0.00 0.00
0.00 0.00 0.00 0.00 0.00 0.00 0.00 0.00 0.00 0.00 0.00 0.00 0.00 0.00 0.00 0.00 0.00 0.00 0.00 0.00 0.00 0.00 0.00 0.00 0.00 0.00 0.00 0.00 0.00 0.00 0.00 0.00 0.01 0.00 0.00 0.00 0.00 0.00 0.00 0.00 0.00 0.00 0.00 0.00 0.00
0.00 0.00 0.00 0.00 0.00 0.00 0.00 0.00 0.00 0.00 0.00 0.00 0.00 0.00 0.00 0.00 0.00 0.00 0.00 0.00 0.00 0.00 0.00 0.00 0.00 0.00 0.00 0.00 0.00 0.00 0.01 0.00 0.00 0.00 0.00 0.00 0.00 0.00 0.00 0.01 0.00 0.00 0.00 0.00 0.00
0.00 0.00 0.00 0.00 0.00 0.00 0.00 0.00 0.00 0.00 0.00 0.00 0.00 0.00 0.00 0.00 0.00 0.00 0.00 0.00 0.00 0.00 0.00 0.00 0.00 0.00 0.00 0.00 0.00 0.00 0.00 0.01 0.00 0.00 0.00 0.00 0.00 0.00 0.00 0.00 0.00 0.00 0.00 0.00 0.00
0.00 0.00 0.00 0.00 0.00 0.00 0.00 0.00 0.00 0.00 0.00 0.00 0.00 0.00 0.00 0.00 0.00 0.00 0.00 0.00 0.00 0.00 0.00 0.00 0.00 0.00 0.00 0.00 0.00 0.00 0.00 0.00 0.00 0.00 0.00 0.00 0.00 0.01 0.00 0.00 0.00 0.00 0.00 0.00 0.00
0.00 0.00 0.00 0.00 0.00 0.00 0.00 0.00 0.00 0.00 0.00 0.00 0.00 0.00 0.00 0.00 0.00 0.00 0.00 0.00 0.00 0.00 0.00 0.00 0.00 0.00 0.00 0.00 0.00 0.00 0.01 0.00 0.00 0.00 0.00 0.00 0.00 0.00 0.00 0.00 0.00 0.00 0.00 0.00 0.00
0.00 0.00 0.00 0.00 0.00 0.00 0.00 0.00 0.00 0.00 0.00 0.00 0.00 0.00 0.00 0.00 0.00 0.00 0.00 0.00 0.00 0.00 0.00 0.00 0.00 0.00 0.00 0.00 0.00 0.00 0.01 0.02 0.01 0.01 0.00 0.00 0.00 0.00 0.00 0.00 0.00 0.00 0.00 0.00 0.00
0.00 0.00 0.00 0.00 0.00 0.00 0.00 0.00 0.00 0.00 0.00 0.00 0.00 0.00 0.00 0.00 0.00 0.00 0.00 0.00 0.00 0.00 0.00 0.00 0.00 0.00 0.00 0.00 0.00 0.00 0.01 0.02 0.02 0.00 0.00 0.01 0.00 0.00 0.00 0.00 0.00 0.00 0.00 0.00 0.00
0.00 0.00 0.00 0.00 0.00 0.00 0.00 0.00 0.00 0.00 0.00 0.00 0.00 0.00 0.00 0.00 0.00 0.00 0.00 0.00 0.00 0.00 0.00 0.00 0.00 0.00 0.00 0.00 0.00 0.00 0.00 0.01 0.01 0.02 0.03 0.00 0.00 0.00 0.00 0.00 0.00 0.00 0.00 0.00 0.00
0.00 0.00 0.00 0.00 0.00 0.00 0.00 0.00 0.00 0.00 0.00 0.00 0.00 0.00 0.00 0.00 0.00 0.00 0.00 0.00 0.00 0.00 0.00 0.00 0.00 0.00 0.00 0.00 0.00 0.00 0.00 0.00 0.00 0.01 0.05 0.01 0.00 0.00 0.00 0.00 0.00 0.00 0.00 0.00 0.00
0.00 0.00 0.00 0.00 0.00 0.00 0.00 0.00 0.00 0.00 0.00 0.00 0.00 0.00 0.00 0.00 0.00 0.00 0.00 0.00 0.00 0.00 0.00 0.00 0.00 0.00 0.00 0.00 0.00 0.00 0.00 0.00 0.00 0.00 0.00 0.00 0.00 0.00 0.00 0.00 0.00 0.00 0.00 0.00 0.00
0.00 0.00 0.00 0.00 0.00 0.00 0.00 0.00 0.00 0.00 0.00 0.00 0.00 0.00 0.00 0.00 0.00 0.00 0.00 0.00 0.00 0.00 0.00 0.00 0.00 0.00 0.00 0.00 0.00 0.00 0.00 0.00 0.00 0.00 0.00 0.00 0.00 0.00 0.00 0.00 0.00 0.00 0.00 0.00 0.00
0.00 0.00 0.00 0.00 0.00 0.00 0.00 0.00 0.00 0.00 0.00 0.00 0.00 0.00 0.00 0.00 0.00 0.00 0.00 0.00 0.00 0.00 0.00 0.00 0.00 0.00 0.00 0.00 0.00 0.00 0.00 0.00 0.00 0.00 0.00 0.00 0.00 0.00 0.01 0.00 0.01 0.00 0.00 0.00 0.00
0.00 0.00 0.00 0.00 0.00 0.00 0.00 0.00 0.00 0.00 0.00 0.00 0.00 0.00 0.00 0.00 0.00 0.00 0.00 0.00 0.00 0.00 0.00 0.00 0.00 0.00 0.00 0.00 0.00 0.00 0.00 0.00 0.00 0.00 0.00 0.00 0.00 0.00 0.00 0.01 0.06 0.01 0.00 0.00 0.00
0.00 0.00 0.00 0.00 0.00 0.00 0.00 0.00 0.00 0.00 0.00 0.00 0.00 0.00 0.00 0.00 0.00 0.00 0.00 0.00 0.00 0.00 0.00 0.00 0.00 0.00 0.00 0.00 0.00 0.00 0.00 0.00 0.00 0.00 0.00 0.00 0.00 0.00 0.00 0.00 0.11 0.09 0.00 0.00 0.00
0.00 0.00 0.00 0.00 0.00 0.00 0.00 0.00 0.00 0.00 0.00 0.00 0.00 0.00 0.00 0.00 0.00 0.00 0.00 0.00 0.00 0.00 0.00 0.00 0.00 0.00 0.00 0.00 0.00 0.00 0.00 0.00 0.00 0.00 0.00 0.00 0.00 0.00 0.00 0.00 0.01 0.05 0.00 0.00 0.00
0.00 0.00 0.00 0.00 0.00 0.00 0.00 0.00 0.00 0.00 0.00 0.00 0.00 0.00 0.00 0.00 0.00 0.00 0.00 0.00 0.00 0.00 0.00 0.00 0.00 0.00 0.00 0.00 0.00 0.00 0.00 0.00 0.00 0.00 0.00 0.00 0.00 0.00 0.00 0.00 0.00 0.01 0.01 0.00 0.00
0.00 0.00 0.00 0.00 0.00 0.00 0.00 0.00 0.00 0.00 0.00 0.00 0.00 0.00 0.00 0.00 0.00 0.00 0.00 0.00 0.00 0.00 0.00 0.00 0.00 0.00 0.00 0.00 0.00 0.00 0.00 0.00 0.00 0.00 0.00 0.00 0.00 0.00 0.00 0.00 0.00 0.00 0.00 0.00 0.00
0.00 0.00 0.00 0.00 0.00 0.00 0.00 0.00 0.00 0.00 0.00 0.00 0.00 0.00 0.00 0.00 0.00 0.00 0.00 0.00 0.00 0.00 0.00 0.00 0.00 0.00 0.00 0.00 0.00 0.00 0.00 0.00 0.00 0.00 0.00 0.00 0.00 0.00 0.00 0.00 0.00 0.00 0.00 0.00 0.00
0.00 0.00 0.00 0.00 0.00 0.00 0.00 0.00 0.00 0.00 0.00 0.00 0.00 0.00 0.00 0.00 0.00 0.00 0.00 0.00 0.00 0.00 0.00 0.00 0.00 0.00 0.00 0.00 0.00 0.00 0.00 0.00 0.00 0.00 0.00 0.00 0.00 0.00 0.00 0.00 0.00 0.00 0.01 0.00 0.00
0.00 0.00 0.00 0.00 0.00 0.00 0.00 0.00 0.00 0.00 0.00 0.00 0.00 0.00 0.00 0.00 0.00 0.00 0.00 0.00 0.00 0.00 0.00 0.00 0.00 0.00 0.00 0.00 0.00 0.00 0.00 0.00 0.00 0.00 0.00 0.00 0.00 0.00 0.00 0.00 0.00 0.01 0.02 0.01 0.00
0.00 0.00 0.00 0.00 0.00 0.00 0.00 0.00 0.00 0.00 0.00 0.00 0.00 0.00 0.00 0.00 0.00 0.00 0.00 0.00 0.00 0.00 0.00 0.00 0.00 0.00 0.00 0.00 0.00 0.00 0.00 0.00 0.00 0.00 0.00 0.00 0.00 0.00 0.00 0.00 0.00 0.04 0.00 0.00 0.00
0.00 0.00 0.00 0.00 0.00 0.00 0.00 0.00 0.00 0.00 0.00 0.00 0.00 0.00 0.00 0.00 0.00 0.00 0.00 0.00 0.00 0.00 0.00 0.00 0.00 0.00 0.00 0.00 0.00 0.00 0.00 0.00 0.00 0.00 0.00 0.00 0.00 0.00 0.00 0.00 0.03 0.09 0.01 0.00 0.00
0.00 0.00 0.00 0.00 0.00 0.00 0.00 0.00 0.00 0.00 0.00 0.00 0.00 0.00 0.00 0.00 0.00 0.00 0.00 0.00 0.00 0.00 0.00 0.00 0.00 0.00 0.00 0.00 0.00 0.00 0.00 0.00 0.00 0.00 0.00 0.00 0.00 0.00 0.00 0.00 0.03 0.14 0.09 0.01 0.00
0.00 0.00 0.00 0.00 0.00 0.00 0.00 0.00 0.00 0.00 0.00 0.00 0.00 0.00 0.00 0.00 0.00 0.00 0.00 0.00 0.00 0.00 0.00 0.00 0.00 0.00 0.00 0.00 0.00 0.00 0.00 0.00 0.00 0.00 0.00 0.00 0.00 0.00 0.00 0.00 0.02 0.04 0.10 0.03 0.00
MSLP
1018.35 1017.84 1017.30 1016.66 1015.99 1015.36 1014.78 1014.22 1013.62 1013.18 1012.62 1011.85 1011.20 1010.71 1010.10 1009.59 1008.39 1007.48 1006.20 1004.21 1004.12 1004.17 1004.74 1004.44 1004.67 1004.29 1003.73 1003.90 1004.77 1007.02 1008.36 1008.45 1007.18 1005.41 1005.72 1005.54 1005.10 1005.50 1006.15 1007.10 1007.68 1008.46 1009.39 1010.74 1011.78
1018.44 1017.89 1017.32 1016.69 1016.08 1015.43 1014.75 1014.08 1013.51 1012.95 1012.54 1011.94 1011.14 1010.33 1010.01 1009.51 1008.45 1006.00 1003.45 1003.42 1003.78 1004.08 1004.29 1003.86 1003.41 1003.04 1003.22 1002.32 1003.69 1005.76 1005.79 1006.51 1004.57 1004.15 1004.45 1004.12 1004.36 1005.13 1006.00 1007.18 1007.56 1009.03 1009.66 1010.96 1011.63
1018.59 1017.99 1017.37 1016.71 1016.02 1015.35 1014.68 1013.93 1013.27 1012.74 1012.14 1011.77 1011.32 1010.46 1009.76 1009.44 1007.90 1004.22 1003.25 1003.41 1003.78 1004.04 1003.88 1003.65 1002.91 1002.44 1002.20 1001.77 1002.19 1003.34 1004.55 1004.57 1003.03 1003.34 1003.44 1003.30 1004.08 1004.90 1005.74 1006.88 1007.78 1009.15 1010.27 1011.05 1011.60
1018.68 1018.06 1017.41 1016.72 1015.95 1015.18 1014.42 1013.69 1012.94 1012.34 1011.92 1011.34 1010.99 1010.40 1009.52 1009.02 1006.68 1003.61 1003.38 1003.45 1003.89 1004.22 1004.10 1003.47 1002.61 1002.26 1002.12 1001.37 1000.95 1001.90 1002.30 1002.39 1001.87 1002.10 1002.64 1003.27 1004.07 1005.13 1005.58 1006.29 1007.64 1008.66 1009.81 1010.94 1011.41
1018.64 1018.03 1017.38 1016.62 1015.82 1015.02 1014.25 1013.48 1012.77 1012.01 1011.56 1011.25 1010.72 1010.31 1009.04 1008.13 1004.97 1003.14 1003.33 1003.79 1003.99 1003.86 1003.61 1003.26 1002.52 1002.08 1001.86 1001.72 1001.27 1001.29 1002.38 1002.20 1001.38 1001.71 1002.10 1003.16 1004.28 1004.79 1006.00 1006.60 1007.62 1009.09 1010.12 1010.77 1011.47
1018.64 1017.95 1017.18 1016.41 1015.60 1014.72 1013.96 1013.25 1012.54 1011.86 1011.21 1011.03 1010.74 1010.40 1009.70 1007.08 1003.19 1002.81 1003.11 1003.74 1003.29 1003.33 1003.04 1002.69 1002.25 1001.94 1001.87 1002.18 1001.77 1001.40 1001.80 1002.54 1001.32 1001.56 1002.09 1003.40 1004.56 1004.51 1006.29 1006.67 1007.90 1009.10 1010.06 1010.55 1011.10
1018.52 1017.83 1017.08 1016.16 1015.22 1014.34 1013.54 1012.74 1012.10 1011.50 1010.90 1010.69 1010.60 1010.23 1008.66 1005.00 1002.82 1003.08 1003.22 1002.73 1002.65 1002.66 1002.69 1002.16 1001.85 1002.24 1002.36 1002.48 1001.74 1002.02 1002.42 1002.45 1002.08 1001.90 1002.79 1003.02 1004.51 1005.23 1005.98 1006.48 1007.78 1008.82 1009.51 1010.06 1010.77
1018.56 1017.71 1016.88 1015.95 1014.88 1013.88 1012.96 1012.04 1011.22 1010.82 1010.26 1010.19 1010.24 1009.77 1007.28 1003.62 1002.89 1002.99 1002.71 1002.54 1002.01 1001.91 1002.10 1001.83 1001.68 1002.18 1002.58 1002.45 1002.00 1002.30 1003.17 1003.52 1002.97 1002.38 1003.00 1002.92 1005.22 1005.00 1005.17 1006.00 1007.21 1008.19 1009.04 1009.66 1010.20
1018.37 1017.73 1016.92 1015.84 1014.54 1013.48 1012.31 1010.99 1009.93 1009.62 1009.59 1009.75 1009.94 1009.09 1005.76 1002.64 1002.84 1002.02 1002.00 1002.03 1001.72 1001.70 1001.70 1001.63 1001.79 1002.36 1002.66 1003.01 1003.05 1002.92 1003.85 1004.39 1003.52 1002.77 1003.31 1003.69 1005.24 1005.07 1005.03 1005.50 1006.40 1007.38 1008.24 1009.26 1009.71
1018.40 1017.63 1016.57 1015.41 1014.40 1013.20 1011.80 1009.74 1008.48 1009.02 1009.24 1009.00 1008.62 1008.12 1004.68 1002.48 1001.66 1001.23 1001.28 1001.42 1001.77 1001.97 1001.98 1001.92 1002.26 1002.67 1003.05 1003.49 1003.48 1003.83 1004.12 1005.15 1004.94 1003.61 1003.90 1004.58 1004.54 1004.88 1004.66 1005.15 1006.06 1006.82 1007.44 1008.41 1009.07
1018.36 1017.59 1016.71 1015.42 1014.13 1012.90 1012.43 1010.04 1009.47 1009.04 1008.56 1007.88 1007.12 1005.57 1002.96 1002.20 1001.37 1000.29 1000.76 1001.19 1001.62 1001.97 1002.30 1002.32 1002.82 1002.79 1002.87 1002.94 1002.82 1003.44 1003.77 1004.26 1004.19 1004.05 1004.72 1004.80 1004.49 1004.42 1004.14 1004.76 1005.42 1006.23 1006.66 1007.51 1008.39
1018.23 1017.56 1016.62 1015.46 1013.92 1012.52 1012.42 1011.30 1010.81 1010.56 1008.69 1007.04 1005.82 1004.84 1003.59 1002.91 1002.32 1000.98 1000.58 1001.14 1001.56 1001.89 1002.34 1002.73 1002.30 1002.08 1002.05 1002.14 1002.20 1002.52 1003.42 1004.06 1003.13 1003.41 1004.81 1003.54 1003.51 1003.60 1003.60 1003.46 1004.29 1005.52 1006.40 1006.90 1007.72
1018.27 1017.61 1016.62 1015.38 1013.53 1012.12 1011.98 1010.82 1010.09 1009.77 1009.18 1005.32 1003.28 1002.47 1002.02 1002.09 1001.73 1001.12 1000.78 1000.92 1001.27 1001.61 1001.76 1001.81 1001.44 1001.43 1001.33 1001.36 1001.48 1001.47 1002.20 1002.58 1003.16 1003.62 1004.20 1003.62 1003.75 1004.22 1003.50 1003.75 1004.53 1005.17 1006.01 1006.92 1007.23
1018.32 1017.68 1016.71 1015.62 1013.20 1012.78 1011.46 1010.45 1009.92 1009.73 1008.87 1004.23 1001.30 1000.06 1000.48 1000.92 1000.59 1000.91 1000.48 1000.96 1000.96 1001.17 1001.32 1001.14 1000.88 1000.62 1000.42 1000.36 1000.54 1000.40 1000.64 1000.44 1001.04 1003.01 1003.22 1001.92 1003.06 1002.78 1002.99 1003.34 1004.18 1004.98 1005.49 1006.11 1006.77
1018.17 1017.57 1016.82 1016.51 1015.44 1013.34 1011.26 1010.38 1009.98 1009.73 1007.97 1001.85 999.68 998.66 999.18 1000.28 999.80 999.66 1000.16 1000.45 1000.65 1000.82 1001.02 1000.23 1000.12 999.79 999.54 999.32 999.46 999.49 999.12 999.82 1000.30 1001.02 1001.42 1000.84 1001.40 1000.65 1001.86 1002.90 1003.13 1004.04 1005.08 1005.53 1006.05
1017.85 1017.40 1017.08 1015.44 1014.89 1012.88 1011.39 1010.45 1010.12 1009.83 1006.36 1002.15 999.88 999.28 999.36 999.67 999.82 999.58 999.81 1000.08 1000.37 1000.70 1000.20 999.83 999.42 999.04 998.58 998.55 998.52 998.69 998.83 999.05 999.64 1000.45 1000.73 1000.59 1000.15 999.97 1000.75 1000.74 1002.62 1003.56 1004.27 1004.74 1005.27
1017.62 1016.89 1016.79 1016.11 1013.92 1012.31 1011.72 1010.74 1010.40 1008.37 1004.70 1002.58 1001.63 1000.69 999.71 999.64 999.55 999.44 999.52 999.82 1000.30 1000.62 1000.04 999.82 999.06 998.22 998.12 998.10 997.96 998.09 998.96 999.58 1000.14 1000.19 1000.40 999.53 999.88 1000.58 999.40 1000.47 1001.33 1002.60 1003.45 1003.79 1004.20
1017.45 1016.20 1014.56 1013.68 1012.91 1012.18 1011.86 1011.44 1010.05 1007.06 1005.26 1003.83 1002.96 1001.78 1000.66 999.70 999.45 999.31 999.38 999.59 999.64 1000.11 1000.02 999.78 999.11 997.98 997.08 997.06 997.39 997.44 998.30 999.28 1000.06 1000.37 999.94 999.60 1000.37 1000.12 999.45 1000.72 1000.90 1000.40 1000.52 1002.45 1002.97
1017.06 1014.95 1013.50 1012.08 1012.08 1011.88 1012.06 1011.28 1009.19 1007.52 1006.17 1005.45 1004.21 1003.36 1001.80 1000.41 1000.24 1000.14 999.86 999.49 999.22 999.56 999.94 999.63 998.41 997.74 996.57 996.33 996.65 996.84 997.24 998.06 999.26 999.51 1000.16 1000.71 1000.98 1000.27 1000.10 999.96 999.62 999.82 1000.26 1000.43 1001.61
1017.44 1015.12 1012.36 1010.83 1011.14 1011.52 1011.94 1010.89 1009.43 1008.33 1007.49 1006.70 1005.92 1005.04 1004.30 1003.07 1002.06 1001.13 1000.13 999.46 999.26 998.97 998.98 999.04 998.88 997.55 996.44 995.96 995.52 995.92 996.74 997.59 998.18 999.28 1000.08 1000.28 1000.28 999.39 999.51 1000.21 1000.01 999.52 1000.07 999.85 1000.34
1017.16 1014.27 1010.71 1010.50 1010.80 1011.53 1011.54 1010.57 1009.21 1007.94 1007.26 1006.78 1006.66 1006.47 1006.26 1005.48 1004.54 1003.22 1001.78 1000.52 1000.01 999.49 999.01 999.02 998.98 997.82 997.28 995.92 995.62 995.78 996.01 996.66 997.62 998.65 999.42 999.85 999.31 997.46 997.97 998.09 999.16 999.21 997.76 998.69 998.85
1016.16 1013.64 1010.64 1010.65 1011.39 1011.11 1010.88 1009.95 1008.89 1008.02 1007.46 1007.38 1007.53 1007.61 1007.48 1006.92 1005.91 1004.75 1003.18 1002.45 1001.58 1001.00 1000.82 1000.68 999.54 998.80 997.01 996.27 995.86 995.25 995.48 996.05 997.32 997.88 998.21 998.52 998.14 996.72 996.80 997.48 997.05 998.15 997.29 997.22 997.80
1016.53 1013.37 1010.75 1010.61 1011.08 1010.73 1010.06 1009.46 1009.02 1008.60 1008.05 1008.10 1008.16 1008.04 1007.86 1007.62 1007.26 1005.50 1004.56 1003.25 1002.94 1002.12 1002.20 1001.99 1000.92 999.87 998.29 996.92 995.76 995.63 994.62 995.18 995.83 996.89 997.34 998.08 997.61 996.86 996.54 996.88 996.55 996.71 997.18 998.25 997.86
1017.20 1013.72 1011.35 1010.81 1010.92 1010.85 1010.46 1009.91 1009.37 1008.89 1008.70 1008.53 1008.69 1008.70 1008.63 1008.08 1007.52 1006.46 1005.80 1004.36 1004.04 1003.53 1003.02 1002.56 1002.23 1001.71 1000.34 998.21 996.82 995.53 994.41 994.59 995.17 996.07 996.54 996.56 997.00 996.52 996.17 996.34 996.71 996.38 997.06 996.69 997.72
1017.12 1014.22 1013.46 1012.35 1011.90 1011.53 1010.99 1010.48 1009.78 1009.29 1009.23 1009.48 1009.23 1009.26 1009.34 1009.18 1008.37 1007.65 1007.25 1006.21 1005.38 1005.17 1004.40 1003.29 1002.91 1002.19 1000.37 998.90 997.58 996.30 995.16 993.83 994.18 994.66 995.34 995.73 996.20 995.72 995.23 995.06 996.72 996.73 997.78 997.68 997.70
1017.44 1016.20 1014.90 1014.18 1013.26 1012.30 1011.43 1010.94 1010.56 1010.07 1009.78 1009.91 1010.53 1010.33 1009.90 1009.97 1010.19 1009.50 1009.15 1008.52 1007.44 1006.74 1006.23 1005.23 1004.42 1003.23 1000.89 999.33 998.00 996.37 995.04 994.19 993.11 993.62 994.05 994.58 995.73 995.18 995.67 996.42 997.11 998.44 999.62 999.15 997.42
1017.18 1016.69 1016.15 1014.94 1014.02 1013.08 1012.03 1011.92 1011.22 1010.84 1010.36 1010.31 1010.73 1010.72 1010.19 1010.78 1010.46 1010.10 1010.03 1009.43 1008.90 1008.50 1007.83 1007.14 1006.50 1005.12 1002.21 1000.21 998.63 996.62 995.02 994.21 993.40 992.64 993.30 993.79 994.69 995.24 995.94 996.36 997.75 997.88 1000.05 999.58 997.62
Thickness
5705 5709 5714 5720 5726 5732 5737 5743 5749 5754 5761 5769 5777 5784 5792 5799 5811 5821 5824 5847 5853 5856 5854 5853 5849 5849 5856 5842 5840 5818 5773 5761 5777 5799 5795 5808 5816 5833 5833 5817 5820 5818 5807 5804 5803
5700 5705 5710 5716 5722 5728 5734 5741 5747 5753 5758 5765 5774 5784 5791 5797 5808 5820 5856 5857 5857 5856 5851 5846 5845 5855 5838 5848 5839 5811 5795 5791 5815 5822 5814 5828 5828 5824 5818 5811 5816 5804 5810 5806 5805
5696 5701 5706 5712 5718 5724 5731 5738 5745 5751 5758 5763 5769 5779 5789 5795 5802 5828 5854 5855 5855 5855 5856 5854 5857 5851 5836 5851 5847 5838 5800 5807 5827 5834 5838 5831 5827 5832 5817 5805 5809 5794 5797 5801 5801
5691 5696 5701 5707 5715 5722 5729 5736 5744 5751 5756 5763 5768 5775 5786 5793 5774 5837 5850 5852 5851 5851 5847 5845 5847 5833 5825 5832 5856 5829 5840 5840 5842 5852 5843 5832 5833 5818 5821 5819 5819 5813 5807 5801 5799
5686 5691 5697 5703 5711 5718 5726 5733 5740 5749 5755 5759 5765 5771 5784 5782 5802 5846 5849 5847 5848 5847 5840 5837 5834 5832 5820 5832 5844 5841 5835 5847 5857 5857 5850 5845 5828 5821 5815 5826 5823 5812 5804 5800 5797
5678 5685 5692 5699 5707 5715 5723 5730 5738 5744 5751 5755 5759 5764 5769 5766 5836 5843 5847 5842 5845 5842 5840 5842 5836 5844 5830 5825 5829 5847 5843 5837 5858 5855 5852 5829 5824 5834 5820 5829 5815 5807 5799 5801 5799
5671 5677 5684 5693 5702 5711 5720 5728 5735 5742 5748 5752 5754 5759 5766 5792 5831 5832 5840 5842 5847 5844 5833 5848 5850 5836 5833 5818 5845 5842 5826 5834 5842 5849 5839 5845 5817 5814 5828 5828 5813 5806 5804 5805 5801
5661 5669 5676 5684 5695 5705 5716 5726 5735 5740 5746 5750 5750 5754 5760 5820 5825 5825 5836 5835 5849 5852 5845 5852 5856 5839 5830 5838 5836 5825 5816 5795 5827 5844 5841 5839 5788 5820 5836 5827 5815 5809 5807 5804 5803
5654 5658 5665 5675 5687 5697 5710 5724 5736 5741 5744 5745 5744 5748 5763 5821 5805 5827 5836 5825 5836 5842 5845 5851 5843 5824 5824 5804 5795 5812 5784 5786 5809 5842 5832 5827 5797 5823 5838 5832 5821 5816 5811 5803 5804
5645 5651 5659 5668 5677 5688 5703 5722 5736 5735 5738 5742 5745 5738 5777 5787 5809 5821 5830 5832 5820 5822 5818 5819 5813 5795 5797 5788 5761 5778 5776 5771 5778 5820 5821 5807 5812 5823 5836 5832 5822 5820 5816 5809 5806
5637 5643 5649 5659 5670 5681 5686 5706 5707 5714 5725 5726 5735 5749 5781 5796 5812 5815 5824 5816 5814 5803 5779 5801 5777 5767 5788 5803 5810 5803 5790 5780 5799 5818 5802 5798 5809 5821 5836 5831 5826 5821 5819 5813 5809
5631 5636 5644 5652 5664 5675 5677 5683 5681 5687 5692 5723 5737 5748 5773 5780 5770 5795 5819 5791 5788 5772 5787 5776 5762 5801 5815 5815 5811 5804 5781 5776 5807 5821 5799 5811 5814 5822 5835 5840 5835 5824 5818 5815 5814
5623 5628 5637 5647 5661 5672 5671 5677 5685 5686 5670 5719 5743 5752 5767 5768 5765 5778 5798 5791 5779 5771 5778 5766 5789 5813 5810 5805 5802 5803 5788 5792 5790 5807 5801 5806 5797 5802 5833 5840 5833 5829 5824 5818 5817
5614 5619 5628 5636 5657 5658 5666 5677 5679 5680 5645 5704 5736 5757 5767 5769 5754 5789 5798 5784 5775 5765 5778 5775 5804 5800 5801 5799 5807 5787 5822 5830 5823 5790 5765 5819 5767 5806 5824 5827 5827 5824 5822 5823 5822
5606 5611 5618 5620 5628 5643 5660 5669 5673 5665 5622 5726 5739 5772 5767 5747 5767 5775 5799 5779 5761 5767 5773 5772 5786 5790 5790 5803 5819 5806 5836 5829 5831 5811 5810 5825 5799 5824 5830 5817 5829 5831 5824 5826 5829
5599 5604 5606 5619 5623 5639 5651 5660 5657 5628 5631 5703 5734 5728 5731 5740 5749 5771 5769 5777 5781 5765 5776 5781 5808 5803 5807 5823 5827 5835 5829 5830 5829 5819 5782 5814 5817 5818 5820 5834 5830 5835 5831 5830 5833
5593 5599 5601 5604 5621 5636 5641 5642 5619 5621 5684 5692 5690 5705 5719 5721 5732 5748 5746 5743 5733 5721 5734 5765 5779 5807 5817 5800 5823 5823 5803 5769 5760 5771 5765 5831 5819 5807 5847 5846 5839 5833 5838 5839 5837
5586 5597 5610 5616 5623 5630 5630 5616 5607 5652 5664 5684 5683 5695 5696 5722 5726 5739 5734 5728 5751 5747 5738 5734 5734 5787 5815 5802 5798 5806 5803 5769 5739 5753 5784 5836 5794 5819 5847 5845 5848 5854 5857 5853 5847
5582 5598 5609 5621 5621 5624 5610 5597 5619 5640 5658 5651 5672 5668 5685 5716 5716 5715 5720 5728 5747 5754 5726 5727 5745 5799 5815 5825 5820 5806 5790 5821 5790 5808 5790 5797 5806 5831 5840 5848 5857 5849 5853 5862 5854
5569 5586 5607 5624 5620 5613 5595 5595 5612 5628 5634 5636 5635 5657 5649 5668 5687 5698 5709 5737 5740 5759 5766 5754 5731 5780 5807 5822 5830 5814 5831 5787 5798 5760 5754 5785 5791 5800 5832 5824 5838 5842 5842 5855 5864
5564 5583 5613 5616 5612 5595 5581 5593 5611 5628 5631 5624 5624 5629 5634 5640 5657 5665 5685 5720 5725 5734 5749 5756 5746 5762 5783 5780 5792 5805 5800 5807 5807 5792 5763 5753 5772 5846 5843 5855 5842 5844 5866 5861 5871
5567 5571 5605 5607 5581 5585 5582 5595 5606 5610 5615 5609 5610 5612 5615 5626 5632 5649 5668 5676 5705 5716 5707 5720 5728 5730 5760 5798 5811 5823 5807 5812 5783 5773 5793 5790 5789 5860 5860 5862 5865 5853 5869 5874 5879
5554 5573 5597 5595 5566 5574 5587 5591 5594 5590 5589 5585 5587 5599 5608 5610 5609 5646 5655 5680 5682 5692 5692 5703 5698 5706 5736 5772 5799 5786 5821 5820 5816 5804 5787 5774 5793 5852 5854 5853 5866 5865 5863 5856 5874
5543 5562 5578 5581 5577 5570 5568 5570 5571 5581 5577 5580 5575 5581 5586 5597 5614 5627 5637 5660 5665 5675 5689 5700 5691 5692 5699 5741 5779 5783 5810 5822 5812 5787 5792 5804 5811 5839 5850 5851 5858 5865 5866 5875 5873
5540 5555 5554 5550 5554 5556 5558 5557 5558 5558 5567 5565 5563 5567 5571 5571 5591 5607 5607 5619 5644 5648 5664 5681 5674 5696 5732 5754 5766 5776 5789 5820 5805 5811 5795 5818 5812 5838 5856 5858 5853 5862 5856 5860 5867
5525 5527 5536 5534 5538 5542 5546 5544 5544 5550 5553 5550 5536 5542 5556 5554 5553 5560 5578 5591 5610 5632 5636 5655 5659 5682 5716 5749 5759 5764 5784 5795 5824 5823 5822 5831 5819 5843 5847 5852 5843 5834 5822 5839 5865
5522 5520 5518 5523 5524 5526 5532 5528 5534 5537 5547 5549 5542 5540 5546 5539 5552 5565 5578 5589 5604 5609 5623 5634 5645 5659 5696 5736 5743 5739 5777 5792 5807 5834 5830 5814 5831 5839 5830 5840 5831 5825 5814 5829 5861